DW9565 Weather Reports


Display with metric or nautical units.
time (UTC)temp
F
wind
direction
speed
MPH
gust
MPH
rain 1hr
in
rain 24hr
in
rain mn
in
humidity
%
barometer
mb
20260510201528 71 168 11.0 19.0 0.00 0.00 0.00 27 1015.6
20260510200026 70 206 12.0 18.0 0.00 0.00 0.00 27 1015.8
20260510194524 70 215 12.0 21.0 0.00 0.00 0.00 27 1015.9
20260510193022 69 183 9.0 20.0 0.00 0.00 0.00 29 1016.0
20260510191524 69 194 14.0 19.0 0.00 0.00 0.00 29 1016.1
20260510190022 67 217 14.0 21.0 0.00 0.00 0.00 32 1016.2
20260510184521 67 162 13.0 20.0 0.00 0.00 0.00 32 1016.4
20260510183021 68 159 18.0 22.0 0.00 0.00 0.00 34 1016.4
20260510181610 65 184 15.0 21.0 0.00 0.00 0.00 36 1016.5
20260510180042 65 167 16.0 21.0 0.00 0.00 0.00 34 1016.6
20260510174602 66 206 19.0 26.0 0.00 0.00 0.00 33 1016.8
20260510173011 66 189 12.0 21.0 0.00 0.00 0.00 36 1016.9
20260510171511 65 172 17.0 20.0 0.00 0.00 0.00 36 1017.0
20260510170008 65 180 12.0 23.0 0.00 0.00 0.00 38 1017.0
20260510164606 64 182 10.0 17.0 0.00 0.00 0.00 37 1017.2
20260510163004 64 168 9.0 15.0 0.00 0.00 0.00 39 1017.3
20260510161502 63 165 10.0 16.0 0.00 0.00 0.00 41 1017.3
20260510160005 63 212 11.0 15.0 0.00 0.00 0.00 40 1017.4
20260510154603 63 179 11.0 17.0 0.00 0.00 0.00 41 1017.5
20260510153106 62 194 10.0 15.0 0.00 0.00 0.00 41 1017.7
20260510151558 62 176 11.0 14.0 0.00 0.00 0.00 42 1017.8
20260510150055 61 173 11.0 14.0 0.00 0.00 0.00 44 1017.8
20260510144552 60 155 9.0 13.0 0.00 0.00 0.00 44 1017.9
20260510143053 60 187 9.0 13.0 0.00 0.00 0.00 44 1017.9
20260510141551 59 196 9.0 14.0 0.00 0.00 0.00 50 1018.0
20260510140043 58 171 6.0 9.0 0.00 0.00 0.00 54 1018.0
20260510134543 55 236 2.0 5.0 0.00 0.00 0.00 58 1018.1
20260510133038 55 236 3.0 5.0 0.00 0.00 0.00 58 1018.1
20260510131535 54 236 3.0 5.0 0.00 0.00 0.00 58 1018.1
20260510130033 53 236 4.0 6.0 0.00 0.00 0.00 58 1018.1
20260510124533 52 247 4.0 7.0 0.00 0.00 0.00 60 1018.2
20260510123031 50 247 4.0 7.0 0.00 0.00 0.00 62 1018.2
20260510121530 50 219 5.0 8.0 0.00 0.00 0.00 61 1018.3
20260510120033 50 244 4.0 9.0 0.00 0.00 0.00 62 1018.4
20260510114531 50 236 5.0 8.0 0.00 0.00 0.00 61 1018.4
20260510113032 51 235 4.0 7.0 0.00 0.00 0.00 60 1018.4
20260510111531 50 217 4.0 8.0 0.00 0.00 0.00 62 1018.4
20260510110034 50 223 4.0 8.0 0.00 0.00 0.00 61 1018.7
20260510104530 50 241 2.0 5.0 0.00 0.00 0.00 61 1018.6
20260510103027 52 223 3.0 5.0 0.00 0.00 0.00 58 1018.7
20260510101524 51 74 1.0 3.0 0.00 0.00 0.00 58 1018.7
20260510100023 50 74 0.0 2.0 0.00 0.00 0.00 61 1018.8
20260510094528 49 74 2.0 4.0 0.00 0.00 0.00 62 1018.9
20260510093036 49 76 3.0 4.0 0.00 0.00 0.00 62 1019.0
20260510091522 50 76 2.0 5.0 0.00 0.00 0.00 61 1018.9
20260510090021 48 76 2.0 4.0 0.00 0.00 0.00 65 1019.0
20260510084528 48 76 2.0 4.0 0.00 0.00 0.00 66 1019.0
20260510083021 49 109 1.0 4.0 0.00 0.00 0.00 64 1019.1
20260510081525 49 109 2.0 6.0 0.00 0.00 0.00 63 1019.1
20260510080021 50 82 3.0 10.0 0.00 0.00 0.00 62 1019.2
20260510074519 48 110 5.0 11.0 0.00 0.00 0.00 70 1019.2
20260510073021 49 98 9.0 12.0 0.00 0.00 0.00 68 1019.2
20260510071527 49 104 10.0 13.0 0.00 0.00 0.00 68 1019.2
20260510070016 48 100 9.0 11.0 0.00 0.00 0.00 69 1019.3
20260510064514 46 355 4.0 8.0 0.00 0.00 0.00 71 1019.3
20260510063016 48 39 4.0 9.0 0.00 0.00 0.00 68 1019.4
20260510061517 48 61 2.0 5.0 0.00 0.00 0.00 65 1019.5
20260510060006 51 109 1.0 10.0 0.00 0.00 0.00 62 1019.4
20260510054507 49 80 3.0 5.0 0.00 0.00 0.00 64 1019.3
20260510053005 49 77 3.0 8.0 0.00 0.00 0.00 64 1019.5
20260510051506 50 192 2.0 4.0 0.00 0.00 0.00 62 1019.3
20260510050005 51 134 2.0 4.0 0.00 0.00 0.00 60 1019.4
20260510044505 50 96 2.0 3.0 0.00 0.00 0.00 61 1019.6
20260510043013 50 96 0.0 0.0 0.00 0.00 0.00 62 1019.6
20260510041505 51 96 0.0 0.0 0.00 0.00 0.00 61 1019.4
20260510040004 51 96 0.0 0.0 0.00 0.00 0.00 61 1019.2
20260510034504 53 96 0.0 3.0 0.00 0.00 0.00 60 1019.2
20260510033002 53 96 2.0 3.0 0.00 0.00 0.00 59 1019.2
20260510031502 52 96 0.0 2.0 0.00 0.00 0.00 62 1019.0
20260510030003 53 96 0.0 2.0 0.00 0.00 0.00 62 1018.8
20260510024501 53 96 3.0 7.0 0.00 0.00 0.00 65 1018.6
20260510023001 53 97 5.0 11.0 0.00 0.00 0.00 64 1018.4
20260510021502 55 100 6.0 11.0 0.00 0.00 0.00 62 1018.3
20260510020101 55 105 8.0 11.0 0.00 0.00 0.00 63 1018.4
20260510020001 55 109 6.0 11.0 0.00 0.00 0.00 63 1018.4
20260510014600 55 103 6.0 8.0 0.00 0.00 0.00 63 1018.2
20260510014501 56 98 5.0 10.0 0.00 0.00 0.00 62 1018.5
20260510013003 56 107 7.0 11.0 0.00 0.00 0.00 62 1018.4
20260510011500 56 106 7.0 10.0 0.00 0.00 0.00 62 1018.4
20260510010001 55 105 7.0 12.0 0.00 0.00 0.00 64 1018.5
20260510004602 56 97 9.0 12.0 0.00 0.00 0.00 62 1018.5
20260510003004 58 87 9.0 12.0 0.00 0.00 0.00 60 1018.4
20260510001501 58 98 7.0 10.0 0.00 0.00 0.00 57 1018.4
20260510000108 57 107 8.0 10.0 0.00 0.00 0.00 58 1018.5
20260509234615 58 69 4.0 8.0 0.00 0.00 0.00 58 1018.6
20260509234503 57 53 4.0 8.0 0.00 0.00 0.00 61 1018.6
20260509233059 58 52 4.0 7.0 0.00 0.00 0.00 59 1018.6
20260509231600 57 242 1.0 5.0 0.00 0.00 0.00 60 1018.6
20260509230109 56 242 3.0 5.0 0.00 0.00 0.00 63 1018.8
20260509224558 58 219 5.0 8.0 0.00 0.00 0.00 54 1018.7
20260509223101 59 180 2.0 6.0 0.00 0.00 0.00 49 1018.7
20260509221558 59 280 2.0 7.0 0.00 0.00 0.00 47 1018.7
20260509220057 59 179 3.0 8.0 0.00 0.00 0.00 47 1018.8
20260509214558 59 216 4.0 10.0 0.00 0.00 0.00 47 1018.8
20260509213101 59 172 5.0 7.0 0.00 0.00 0.00 48 1018.8
20260509211604 60 215 3.0 13.0 0.00 0.00 0.00 47 1019.0
20260509210101 59 128 4.0 9.0 0.00 0.00 0.00 48 1019.0
20260509204555 58 194 2.0 8.0 0.00 0.00 0.00 48 1019.0
20260509203100 58 261 2.0 7.0 0.00 0.00 0.00 48 1019.0